Rome, GA

1:36 PM EDT on October 21, 2017 (GMT -0400)
Russell

Weather History for KRMG - April, 2014

Change the Weather History Date:

Wednesday, April 23, 2014

  Actual Average Record
Temperature  
Mean Temperature 62 °F 62 °F  
Max Temperature 76 °F 75 °F 87 °F (2004)
Min Temperature 47 °F 49 °F 39 °F (1998)
Degree Days  
Heating Degree Days 3 5  
Month to date heating degree days 139 160  
Since 1 July heating degree days 3414 3187  
Cooling Degree Days 0 1  
Month to date cooling degree days 5 19  
Year to date cooling degree days 5 23  
Growing Degree Days 12 (Base 50)    
Moisture  
Dew Point 48 °F    
Average Humidity 62    
Maximum Humidity 100    
Minimum Humidity 23    
Precipitation  
Precipitation 0.00 in 0.16 in 1.31 in (2017)
Month to date precipitation 4.72 2.94  
Year to date precipitation 17.08 17.58  
Snow  
Snow 0.00 in - - ()
Month to date snowfall 0.0  
Since 1 July snowfall T  
Snow Depth -    
Sea Level Pressure  
Sea Level Pressure 29.91 in    
Wind  
Wind Speed 6 mph (North)    
Max Wind Speed 16 mph    
Max Gust Speed 22 mph    
Visibility 6 miles    
Events Fog    
T = Trace of Precipitation, MM = Missing Value Source: NWS Daily Summary

Daily Weather History Graph

Daily Weather History Graph

Search for Another Location

Airport or City:

Trip Planner

Search our weather history database for the weather conditions in past years. The results will help you decide how hot, cold, wet, or windy it might be!

Date:

Astronomy

Apr. 23, 2014 Rise Set
Actual Time 6:59 AM EDT 8:18 PM EDT
Civil Twilight 6:33 AM EDT 8:45 PM EDT
Nautical Twilight 6:02 AM EDT 9:16 PM EDT
Astronomical Twilight 5:29 AM EDT 9:49 PM EDT
Moon 3:14 AM EDT (4/23) 2:41 PM EDT (4/23)
Length of Visible Light 14h 11m
Length of Day
13h 19m
Waning Crescent, 35% of the Moon is Illuminated
Apr 23
Waning Crescent
Apr 29
New
May 6
First Quarter
May 14
Full
May 21
Last Quarter

Hourly Weather History & Observations

Time (EDT) Temp. Dew Point Humidity Pressure Visibility Wind Dir Wind Speed Gust Speed Precip Events Conditions
12:14 AM 57.9 °F 57.9 °F 100% 29.88 in 1.2 mi Calm Calm - N/A   Partly Cloudy
12:19 AM 57.9 °F 57.9 °F 100% 29.88 in 3.0 mi Calm Calm - N/A   Partly Cloudy
12:23 AM 57.9 °F 57.9 °F 100% 29.88 in 1.5 mi Calm Calm - N/A   Clear
12:26 AM 57.9 °F 57.9 °F 100% 29.88 in 0.8 mi Calm Calm - N/A   Mist
12:47 AM 57.2 °F 57.2 °F 100% 29.88 in 1.2 mi Calm Calm - N/A   Partly Cloudy
12:53 AM 57.0 °F 57.0 °F 100% 29.86 in 1.8 mi Calm Calm - N/A   Scattered Clouds
1:01 AM 55.9 °F 55.9 °F 100% 29.87 in 4.0 mi Calm Calm - N/A   Scattered Clouds
1:05 AM 55.9 °F 55.0 °F 97% 29.88 in 1.8 mi Calm Calm - N/A   Scattered Clouds
1:09 AM 55.9 °F 55.0 °F 97% 29.88 in 0.8 mi Calm Calm - N/A   Mist
1:13 AM 57.0 °F 55.9 °F 96% 29.88 in 0.2 mi Calm Calm - N/A Fog Fog
1:20 AM 55.9 °F 55.9 °F 100% 29.88 in 0.5 mi Calm Calm - N/A Fog Fog
1:35 AM 55.0 °F 55.0 °F 100% 29.88 in 0.2 mi Calm Calm - N/A Fog Fog
1:53 AM 55.9 °F 55.9 °F 100% 29.86 in 0.2 mi Calm Calm - N/A Fog Fog
2:02 AM 55.0 °F 55.0 °F 100% 29.88 in 1.0 mi WNW 3.5 mph - N/A   Mist
2:15 AM 55.0 °F 55.0 °F 100% 29.88 in 1.8 mi Calm Calm - N/A   Scattered Clouds
2:18 AM 55.0 °F 55.0 °F 100% 29.88 in 3.0 mi NNW 3.5 mph - N/A   Partly Cloudy
2:53 AM 55.0 °F 54.0 °F 96% 29.86 in 10.0 mi North 4.6 mph - N/A   Clear
3:53 AM 57.9 °F 53.1 °F 84% 29.86 in 10.0 mi NNW 5.8 mph - N/A   Clear
4:53 AM 54.0 °F 50.0 °F 86% 29.88 in 10.0 mi NW 6.9 mph - N/A   Clear
5:53 AM 54.0 °F 46.9 °F 77% 29.89 in 10.0 mi North 5.8 mph - N/A   Clear
6:53 AM 54.0 °F 43.0 °F 66% 29.91 in 10.0 mi NW 5.8 mph - N/A   Clear
7:53 AM 54.0 °F 45.0 °F 72% 29.94 in 10.0 mi NW 6.9 mph - N/A   Clear
8:53 AM 57.9 °F 44.1 °F 60% 29.96 in 10.0 mi NNW 8.1 mph - N/A   Clear
9:53 AM 61.0 °F 37.9 °F 42% 29.98 in 10.0 mi North 13.8 mph - N/A   Clear
10:53 AM 63.0 °F 39.9 °F 43% 29.99 in 10.0 mi North 12.7 mph - N/A   Clear
11:53 AM 66.0 °F 39.0 °F 37% 29.99 in 10.0 mi NNE 13.8 mph - N/A   Clear
12:53 PM 68.0 °F 41.0 °F 37% 29.99 in 10.0 mi NNW 12.7 mph - N/A   Clear
1:53 PM 71.1 °F 39.0 °F 31% 29.95 in 10.0 mi NE 9.2 mph - N/A   Clear
2:53 PM 73.0 °F 37.9 °F 28% 29.94 in 10.0 mi North 8.1 mph - N/A   Clear
3:53 PM 73.9 °F 36.0 °F 25% 29.91 in 10.0 mi NNW 8.1 mph 20.7 mph N/A   Clear
4:53 PM 75.0 °F 37.0 °F 25% 29.90 in 10.0 mi NNE 5.8 mph - N/A   Clear
5:53 PM 75.0 °F 36.0 °F 24% 29.89 in 10.0 mi NNE 9.2 mph 17.3 mph N/A   Clear
6:53 PM 75.0 °F 39.0 °F 27% 29.90 in 10.0 mi North 5.8 mph - N/A   Clear
7:53 PM 70.0 °F 42.1 °F 36% 29.90 in 10.0 mi NNE 4.6 mph - N/A   Clear
8:53 PM 61.0 °F 45.0 °F 56% 29.92 in 10.0 mi Calm Calm - N/A   Clear
9:53 PM 57.9 °F 46.0 °F 65% 29.94 in 10.0 mi Calm Calm - N/A   Clear
10:53 PM 53.1 °F 46.0 °F 77% 29.95 in 10.0 mi NE 3.5 mph - N/A   Clear
11:53 PM 50.0 °F 46.0 °F 86% 29.95 in 10.0 mi Calm Calm - N/A   Clear